Content
SEND FEEDBACK

Daily
Averages
Monthly
Summary
United States of America

NEDERLAND, COLORADO


Home > North America > United States > Colorado
Elevation: 8311 feet     Latitude: 39 59N     Longitude: 105 30W

WEATHER
 
SELECT A DAY
Number of Records: 149,536;   Date Range: 1/1/95 - 8/28/14
 
SHARE

PRINT THIS DATA

[ ← Previous Day ]
WEATHER ALMANAC - OCTOBER 22, 2013
[ Next Day → ]
[ °C ]   °F
Weather ElementAverageHighLow
Temperature49.8 °F62.6 °F (1:47 pm)41 °F (6:45 am)
Dewpoint26.2 °F32 °F (6:45 pm)23 °F (12:35 am)
Humidity41.1 %53 % (4:35 am)24 % (4:48 pm)
Barometer30.17 in30.24 in (10:45 am)30.15 in (3:35 am)
Wind Speed6.3 mph12.7 mph (12:35 am)
Wind Gust17.3 mph (12:35 am)
Weather ElementAverage
Visibility21.8 mi
Wind DirectionS (180 °)

Weather ElementTotal
Precipitation---
Heating Degree Days13.2 (Base 65)
Growing Degree Days1.8 (Base 50)
Averaged from 36 records on October 22, 2013
WEATHER CONDITIONS BREAKOUT
WIND DIRECTION BREAKOUT
WEATHER BY HOUR - OCTOBER 22, 2013
[ °C ]   °F
Local TimeTemperatureDewpointHumidityBarometerVisibilityWind DirectionWind SpeedGust SpeedPrecipitationEventsConditions
12:35 AM50.0 °F23.0 °F35 %30.16 in10.0 miWest (270°)12.7 mph17.3 mphClear
12:54 AM48.2 °F23.0 °F37 %30.16 in10.0 miWest (260°)10.4 mphClear
1:15 AM46.4 °F24.8 °F43 %30.16 in10.0 miWest (270°)11.5 mphClear
1:35 AM46.4 °F24.8 °F43 %30.16 in10.0 miWest (260°)10.4 mphClear
1:55 AM46.4 °F24.8 °F43 %30.17 in10.0 miWest (260°)9.2 mphClear
2:15 AM46.4 °F24.8 °F43 %30.17 in10.0 miWest (260°)12.7 mphClear
2:35 AM46.4 °F24.8 °F43 %30.17 in10.0 miWest (270°)11.5 mphClear
2:55 AM46.4 °F24.8 °F43 %30.17 in10.0 miWest (260°)10.4 mphClear
3:15 AM46.4 °F24.8 °F43 %30.16 in10.0 miWest (260°)10.4 mphClear
3:35 AM46.4 °F24.8 °F43 %30.15 in10.0 miWest (260°)9.2 mphClear
3:55 AM44.6 °F23.0 °F43 %30.15 in10.0 miWest (280°)11.5 mphClear
4:15 AM46.4 °F23.0 °F40 %30.16 in10.0 miNorth (360°)9.2 mphClear
4:35 AM42.8 °F26.6 °F53 %30.17 in10.0 miNE (40°)4.6 mphClear
4:55 AM42.8 °F26.6 °F53 %30.17 in10.0 miEast (90°)3.5 mphClear
5:15 AM44.6 °F26.6 °F49 %30.17 in10.0 miCalmClear
5:35 AM44.6 °F24.8 °F46 %30.18 in10.0 miCalmClear
5:45 AM42.8 °F24.8 °F49 %30.18 in15.0 miWSW (250°)3.5 mphPartly Cloudy
5:55 AM42.8 °F26.6 °F53 %30.18 in10.0 miCalmClear
6:45 AM41.0 °F24.8 °F53 %30.19 in30.0 miWest (270°)3.5 mphPartly Cloudy
7:47 AM44.6 °F26.6 °F49 %30.20 in50.0 miWNW (290°)4.6 mphScattered Clouds
8:47 AM48.2 °F30.2 °F50 %30.23 in50.0 miCalmScattered Clouds
10:45 AM53.6 °F26.6 °F35 %30.24 in30.0 miCalmScattered Clouds
11:45 AM57.2 °F28.4 °F33 %30.23 in30.0 miCalmPartly Cloudy
12:45 PM59.0 °F26.6 °F29 %30.22 in40.0 miVariable5.8 mphScattered Clouds
1:47 PM62.6 °F26.6 °F26 %30.20 in40.0 miVariable5.8 mphScattered Clouds
2:45 PM62.6 °F26.6 °F26 %30.19 in40.0 miENE (60°)6.9 mphScattered Clouds
3:51 PM62.6 °F26.6 °F26 %30.18 in45.0 miEast (80°)5.8 mphPartly Cloudy
4:48 PM62.6 °F24.8 °F24 %30.17 in60.0 miSE (140°)4.6 mphPartly Cloudy
5:49 PM59.0 °F26.6 °F29 %30.16 in60.0 miSSE (150°)3.5 mphPartly Cloudy
6:45 PM51.8 °F32.0 °F47 %30.16 in30.0 miWSW (240°)5.8 mphClear
7:51 PM50.0 °F30.2 °F47 %30.16 in25.0 miSW (230°)6.9 mphClear
8:50 PM48.2 °F30.2 °F50 %30.15 in20.0 miSW (230°)6.9 mphClear
9:45 PM50.0 °F28.4 °F43 %30.15 in20.0 miWSW (250°)5.8 mphClear
11:15 PM51.8 °F26.6 °F38 %30.15 in10.0 miWest (280°)5.8 mphClear
11:35 PM51.8 °F26.6 °F38 %30.15 in10.0 miWest (280°)5.8 mphClear
11:55 PM53.6 °F26.6 °F35 %30.15 in10.0 miNNW (330°)8.1 mphClear
Hourly data recorded from KBJC, located miles away from Nederland, Colorado







STORIES FROM OUR PARTNERS